Location: Unspecified
(0.0000°N, 0.0000°E)
Time: 01:40:13
(UTC+00:00)

SPEKTR R - Pass Details

Date: 30 January 2022
Orbit: 10803 x 352326 km, 33.0° (Epoch: 22 May)

Event Time Altitude Azimuth Distance (km) Brightness Sun altitude
Rises 16:11:35 0° 73° (ENE) 179,451 12.4 28.9°
Reaches altitude 10° 16:55:03 10° 73° (ENE) 181,917 12.4 18.6°
Maximum altitude 22:17:11 74° 359° (N) 201,536 12.7 -56.5°
Drops below altitude 10° 03:36:40 10° 284° (WNW) 227,945 12.9 -37.1°
Sets 04:19:03 0° 284° (WNW) 231,714 13.0 -27.2°
